Location: Berg
(48.4333°N, 13.9167°E)
Time: 02:50:23
(UTC+00:00)

ATLAS 2AS CENTAUR R/B - Pass Details

Date: 18 September 2020
Orbit: 939 x 1273 km, 63.7° (Epoch: 19 October)

Event Time Altitude Azimuth Distance (km) Brightness Sun altitude
Rises 19:12:57 0° 182° (S) 4,180 5.6 -20.4°
Reaches altitude 10° 19:16:00 10° 174° (S) 3,239 4.9 -20.9°
Enters shadow 19:16:57 14° 170° (S) 2,967 4.7 -21.0°
Exits shadow 19:24:45 31° 88° (E) 2,087 3.7 -22.1°
Drops below altitude 10° 19:29:46 10° 53° (NE) 3,248 5.0 -22.9°
Sets 19:32:48 0° 44° (NE) 4,193 5.7 -23.3°
